Location: ?????
(54.4334°N, 39.2640°E)
Time: 06:07:32
(UTC+00:00)

Daily predictions for brighter satellites

Satellite Brightness Start Highest point End
(mag) Time Altitude Azimuth Time Altitude Azimuth Time Altitude Azimuth
NOSS 2-1 (E) 4.0 17:13:32 10° WNW 17:16:39 42° SW 17:20:29 10° SSE
Cosmos 1125 Rocket 3.5 17:12:09 10° SSW 17:17:19 65° ESE 17:22:33 10° NNE
Cosmos 405 Rocket 3.9 17:15:44 10° NNE 17:17:46 17° ENE 17:19:47 10° ESE
NOSS 0 Rocket 4.2 17:12:21 10° SW 17:18:36 78° NW 17:24:52 10° NE
Cosmos 2341 Rocket 4.3 17:13:42 10° SSW 17:20:01 80° WNW 17:26:25 10° N
ATLAS 3B R/B 4.2 17:13:22 10° WNW 17:20:51 43° N 17:28:15 10° ENE
Cosmos 2292 Rocket 3.6 17:16:20 10° N 17:20:52 56° ENE 17:24:26 10° SSE
CZ-4B R/B 4.3 17:18:48 10° ESE 17:21:11 18° ENE 17:23:33 10° NNE
COSMOS 2428 3.7 17:15:44 10° SW 17:21:21 54° NW 17:26:59 10° NNE
ERS-1 Rocket 3.0 17:16:55 10° SSE 17:21:55 84° ENE 17:26:58 10° NNW
NOSS 2-1 (C) 4.4 17:19:34 10° WNW 17:22:35 34° SW 17:26:20 10° SSE
Cosmos 2366 rocket 4.2 17:18:40 10° SSW 17:24:48 79° WNW 17:31:00 10° N
Cosmos 1674 Rocket 3.5 17:20:39 10° N 17:25:01 79° E 17:29:22 10° SSE
Cosmos 1727 Rocket 4.1 17:20:22 10° N 17:26:46 84° ENE 17:33:05 10° SSE
IRS-1A Rocket 4.4 17:27:33 10° SSE 17:33:11 75° ENE 17:38:58 10° NNW
MetOp-B 4.2 17:28:30 10° SSE 17:33:53 88° WSW 17:39:17 10° NNW
Cosmos 44 3.9 17:29:32 10° S 17:34:13 38° ESE 17:39:07 10° NE
Okean-O 2.9 17:30:25 10° SE 17:34:39 51° ENE 17:38:55 10° N
SL-16 R/B 2.6 17:31:35 10° S 17:36:49 40° ESE 17:42:06 10° NE
Intercosmos 24 Rocket 4.5 17:32:09 10° S 17:36:57 83° E 17:40:40 10° NNE
Cosmos 1378 Rocket 4.2 17:32:49 10° NNW 17:37:09 58° W 17:41:25 10° S
Cosmos 1908 Rocket 4.0 17:34:00 10° SSE 17:38:01 40° E 17:42:03 10° NNE
CZ-4B R/B 4.3 17:35:44 10° SE 17:39:58 33° ENE 17:44:13 10° N
NOSS 3-1 (C) 4.0 17:33:36 10° NW 17:40:14 89° SW 17:48:23 11° SE
Ariane Rocket 4.0 17:37:05 10° ESE 17:41:28 32° ENE 17:45:54 10° N
CZ-2C R/B 4.0 17:41:05 11° E 17:42:50 16° ENE 17:44:42 10° NNE
Okean O Rocket 1.7 17:39:00 10° SSE 17:43:16 63° ENE 17:47:34 10° N
NOSS 3-4 (A) 3.4 17:38:54 10° SW 17:44:18 78° NW 17:50:27 10° NE
NOSS 3-4 (C) 3.4 17:39:24 10° SW 17:44:50 79° NW 17:51:01 10° NE
Cosmos 2084 Rocket 3.9 17:42:43 10° WSW 17:46:46 62° NNW 17:50:54 10° NE
MOS 1-B 4.4 17:41:02 10° SSE 17:46:47 73° ENE 17:52:34 10° NNW
ATLAS 5 CENTAUR R/B 2.5 17:45:00 10° NW 17:48:22 34° NNE 17:52:25 10° E
Cosmos 1140 Rocket 3.8 17:43:28 10° NNW 17:48:32 53° ENE 17:52:57 13° SE
Spot 2 Rocket 3.5 17:43:44 10° SSE 17:48:43 74° ENE 17:53:45 10° NNW
Cosmos 1656 Rocket 4.5 17:44:06 10° NW 17:49:20 48° WSW 17:54:36 10° S
CZ-4 R/B 2.9 17:47:29 10° SSW 17:50:51 32° W 17:54:12 10° NNW
Cosmos 1025 Rocket 3.4 17:49:52 10° NNW 17:54:06 65° W 17:58:19 10° S
Cosmos 2123 Rocket 4.0 17:49:11 10° N 17:55:30 79° ENE 18:01:49 10° SSE
USA 245 4.4 17:52:19 12° SE 17:56:44 54° ENE 18:02:17 10° N
Meteor 2-8 Rocket 4.4 17:50:51 10° S 17:56:54 79° E 18:02:59 10° NNE
Helios 1A Rocket 3.1 17:54:58 10° N 17:58:09 55° WNW 18:01:17 10° SSW
Cosmos 2239 Rocket 4.5 17:53:02 10° S 17:59:14 84° E 18:05:32 10° NNE
Terra 2.5 17:55:28 10° S 18:00:03 55° W 18:04:42 10° NNW
Cosmos 1821 Rocket 4.5 17:54:09 10° SSW 18:00:25 67° WNW 18:06:49 10° N
Cosmos 1733 Rocket 4.2 17:57:13 10° SSW 18:01:27 46° WNW 18:05:44 10° N
Cosmos 2237 Rocket 3.1 17:59:13 10° SW 18:04:48 55° NW 18:10:26 10° NNE
Cosmos 407 Rocket 4.2 18:00:06 10° NNW 18:04:58 40° NE 18:08:45 15° ESE
COSMOS 2455 3.1 18:04:15 10° NW 18:10:14 62° NE 18:15:03 16° ESE
Cosmos 1174 3.1 18:07:33 10° NW 18:10:54 87° NE 18:12:41 23° SE
Cosmos 2150 Rocket 4.0 18:06:12 10° SSW 18:11:17 64° ESE 18:16:29 10° NNE
Cosmos 1862 3.8 18:09:22 10° N 18:12:46 37° ENE 18:14:41 21° SE
Cosmos 371 Rocket 4.2 18:08:31 10° NNW 18:13:03 37° NE 18:16:22 16° ESE
Cosmos 2058 3.5 18:10:59 10° N 18:14:40 38° ENE 18:16:50 21° SE
Cosmos 1300 Rocket 3.6 18:11:25 10° S 18:15:36 57° E 18:19:51 10° NNE
Cosmos 1346 Rocket 4.3 18:13:07 10° NNW 18:16:20 30° W 18:19:32 10° SSW
USA 59 Rocket 2.5 18:16:31 10° WSW 18:17:33 11° WSW 18:18:38 10° SW
Cosmos 1605 Rocket 4.2 18:18:22 13° SSE 18:23:33 49° E 18:29:28 10° NNE
ARIANE 6 FM1 Upper Stage 4.2 18:20:17 10° NW 18:23:52 30° N 18:27:26 10° ENE
Cosmos 2297 4.1 18:18:23 10° NW 18:24:02 60° WSW 18:28:49 15° SSE
SJ 16-02 2.5 18:21:18 10° N 18:25:05 30° NE 18:27:33 18° ESE
ASTEX 1 3.7 18:21:08 10° S 18:26:01 67° W 18:30:59 10° N
Cosmos 2369 Rocket 2.8 18:23:07 10° NW 18:28:30 50° WSW 18:33:12 13° S
USA 234 3.3 18:23:45 10° ENE 18:30:10 54° SE 18:36:34 10° SW
SPOT 3 Rocket 3.5 18:27:44 18° SSE 18:31:43 86° ENE 18:36:55 10° NNW
SL-08 R/B 3.7 18:28:35 10° NNE 18:33:28 69° WNW 18:38:21 10° SSW
Cosmos 1869 3.1 18:32:16 10° SSW 18:35:47 78° W 18:39:23 10° N
Cosmos 1315 Rocket 2.7 18:34:16 22° S 18:36:28 56° E 18:40:09 10° NNE
Cosmos 1697 Rocket 4.4 18:32:20 10° NNW 18:36:58 25° NNE 18:41:34 10° E
Cosmos 2285 Rocket 4.0 18:31:33 10° SSW 18:37:55 88° ESE 18:44:18 10° NNE
NOSS 3-1 (A) 3.9 18:33:12 10° NW 18:39:55 85° SW 18:45:57 21° SE
YAOGAN 11 4.2 18:36:07 10° NNE 18:40:24 77° WNW 18:44:43 10° SSW
SeaSat 1 3.8 18:37:30 13° E 18:41:08 30° NE 18:45:24 10° NNW
Lacrosse 5 rocket 0.5 18:41:56 10° WNW 18:45:08 87° NNE 18:46:17 36° ESE
USA 186 3.5 18:43:56 12° SW 18:45:17 19° W 18:47:05 10° NW
Cosmos 1943 3.3 18:42:21 10° S 18:47:50 53° ESE 18:53:21 10° NE
Cosmos 2346 Rocket 4.4 18:41:42 10° N 18:47:55 84° E 18:52:18 21° SSE
Cosmos 405 Rocket 3.4 18:48:06 10° NNW 18:50:50 34° W 18:52:20 20° SSW
Cosmos 921 Rocket 3.0 18:46:50 10° NNW 18:51:16 79° WSW 18:53:31 28° SSE
IRS-1C Rocket 4.2 18:50:49 21° S 18:54:22 79° WSW 18:59:41 10° NNW
CZ-4B R/B 3.2 18:52:52 23° SSW 18:54:41 48° W 18:57:59 10° NNW
Cosmos 1975 Rocket 3.3 18:51:52 10° NNW 18:56:17 66° W 18:58:58 23° S
SL-8 R/B 4.1 18:52:29 10° WSW 18:56:52 39° S 18:58:20 31° SE
Cosmos 1980 Rocket 4.2 18:52:54 10° NNW 18:57:14 21° NNE 19:01:33 10° ENE
Helios 1B rocket 3.3 19:01:12 25° E 19:02:01 28° ENE 19:05:05 10° N
Cosmos 1356 Rocket 3.2 19:01:12 28° S 19:03:16 78° ESE 19:07:17 10° NNE
Cosmos 2151 Rocket 4.5 19:02:38 28° ESE 19:03:30 31° E 19:07:21 10° NNE
Okean 1 Rocket 4.4 19:03:47 22° E 19:04:18 22° E 19:07:41 10° NE
Cosmos 1190 Rocket 4.4 18:59:18 10° NNW 19:04:30 53° NE 19:07:08 27° ESE
Cosmos 304 Rocket 3.7 19:02:02 10° NNW 19:06:50 88° WSW 19:08:57 33° SSE
BREEZE-M DEB (TANK) 4.3 19:05:12 10° WSW 19:06:41 19° SSW 19:06:41 19° SSW
Helios 1A 3.9 19:07:03 10° NE 19:10:31 28° E 19:10:37 28° E
Okean 2 Rocket 4.1 19:10:05 27° ESE 19:10:47 29° E 19:14:37 10° NNE
ATLAS 3B R/B 3.8 19:05:32 10° NW 19:13:12 50° NNE 19:20:37 10° E
CZ-2C R/B 3.1 19:12:52 32° SW 19:13:30 37° W 19:16:14 10° NNW
Cosmos 2360 4.4 19:09:28 10° NNW 19:15:09 63° NE 19:18:05 29° ESE
Cosmos 44 4.0 19:10:04 10° WSW 19:15:12 60° NW 19:20:34 10° NE
Geosat 4.5 19:13:23 10° NNE 19:18:20 63° NW 19:23:16 10° SW
CZ-4B R/B 4.2 19:15:34 20° SSW 19:18:31 44° W 19:23:04 10° NNW
Cosmos 1656 3.7 19:13:32 10° NNW 19:19:00 71° NE 19:21:34 32° SE
Okean O Rocket 3.8 19:16:41 10° SW 19:19:52 20° W 19:23:03 10° NW
Ariane Rocket 3.6 19:17:09 22° SSW 19:20:10 51° W 19:25:07 10° NNW
SL-16 R/B 3.1 19:15:20 10° SW 19:20:51 51° NW 19:26:25 10° NNE
ATLAS 5 CENTAUR R/B 1.5 19:26:44 10° NW 19:30:40 69° SW 19:31:55 45° SSE
Cosmos 332 Rocket 4.4 19:26:42 10° NNW 19:31:23 47° NE 19:33:12 32° ESE
Cosmos 1954 Rocket 4.0 19:29:46 10° NNW 19:35:02 73° ENE 19:36:59 39° SE
Cosmos 1420 Rocket 4.4 19:34:10 38° SE 19:35:18 44° ESE 19:40:19 10° NE
Cosmos 1833 Rocket 4.2 19:38:01 18° E 19:38:01 18° E 19:41:38 10° ENE
Cosmos 676 Rocket 4.2 19:33:16 10° NNW 19:38:33 61° ENE 19:40:34 36° ESE
USA 229 DEB 4.3 19:32:22 10° NW 19:39:26 63° NNE 19:45:50 17° ESE
USA 229 4.3 19:32:25 10° NW 19:39:29 63° NNE 19:45:57 16° ESE
Cosmos 1818 3.5 19:35:10 10° NW 19:40:39 78° SW 19:42:40 40° SSE
Cosmos 1725 Rocket 4.4 19:39:35 33° SE 19:41:52 46° E 19:47:51 10° NNE
Cosmos 1153 Rocket 4.5 19:38:14 25° SSW 19:42:07 85° W 19:48:28 10° N
Cosmos 1459 Rocket 4.0 19:42:23 34° SSE 19:45:11 66° E 19:51:25 10° NNE
Cosmos 407 Rocket 4.2 19:42:05 10° NW 19:46:56 42° WSW 19:48:51 30° SSW
Sich 1 Rocket 3.8 19:49:08 47° ESE 19:49:38 50° E 19:53:52 10° NNE
ALOS 2 3.6 19:48:44 31° E 19:49:52 36° ENE 19:53:55 10° N
ATLAS 2AS CENTAUR R/B 3.7 19:50:46 25° ESE 19:50:59 25° ESE 19:56:23 10° ENE
Spot 4 4.4 19:50:21 36° ESE 19:51:44 46° ENE 19:56:17 10° N
Cosmos 371 Rocket 4.0 19:48:45 10° NW 19:53:21 43° WSW 19:54:49 33° SSW
COSMOS 2455 3.7 19:50:28 10° NW 19:55:58 38° WSW 19:58:10 29° SSW
ARIANE 5 R/B 3.1 19:55:21 41° ESE 19:56:16 48° ENE 20:00:31 10° N
Meteor 2-1 Rocket 4.3 19:55:14 40° SSE 19:57:19 68° E 20:03:02 10° NNE
BREEZE-M DEB (TANK) 4.3 19:54:10 10° W 19:57:37 37° S 19:58:00 36° S
Cosmos 1802 Rocket 4.1 19:56:06 38° SSE 19:58:28 63° E 20:04:38 10° NNE
Cosmos 2056 Rocket 4.0 20:00:21 40° SE 20:01:06 42° ESE 20:06:10 10° NE
Cosmos 2251 Rocket 3.7 19:56:08 10° NNW 20:01:25 64° WSW 20:03:03 42° S
SJ 16-02 1.9 19:59:16 10° NW 20:03:19 44° WSW 20:04:02 40° SW
ARIANE 6 FM1 Upper Stage 2.7 19:59:25 10° NW 20:03:25 69° NNE 20:04:06 55° E
Cosmos 2228 4.2 20:06:04 28° E 20:06:04 28° E 20:09:31 10° NNE
Cosmos 1816 Rocket 4.5 20:00:18 10° NNW 20:06:29 77° W 20:08:57 38° S
Cosmos 1536 Rocket 4.2 20:03:22 10° NNW 20:07:30 47° W 20:08:30 39° SW
Cosmos 1624 Rocket 4.3 20:08:12 43° SE 20:08:45 45° ESE 20:13:40 10° NE
CZ-2C R/B 4.1 20:06:14 19° E 20:08:55 29° ENE 20:13:29 10° N
Cosmos 292 Rocket 4.1 20:07:13 10° NNW 20:11:59 58° ENE 20:13:15 43° ESE
IKONOS-2 4.5 20:07:59 10° NNE 20:12:06 75° WNW 20:12:54 55° SW
Cosmos 2016 Rocket 4.0 20:10:38 41° SSE 20:12:55 68° E 20:19:12 10° NNE
USA 234 3.3 20:06:55 10° ENE 20:13:29 84° NNW 20:20:04 10° WSW
SeaSat 1 2.4 20:17:06 53° S 20:18:11 74° WSW 20:23:07 10° NW
Cosmos 1743 3.1 20:15:49 10° N 20:18:06 45° N 20:18:06 45° N
Cosmos 1626 Rocket 4.4 20:17:24 10° N 20:21:24 36° ENE 20:22:02 35° E
Lacrosse 5 rocket 3.2 20:18:51 10° W 20:19:32 14° W 20:19:32 14° W
Cosmos 2173 Rocket 4.0 20:18:49 33° SSW 20:21:43 72° WNW 20:27:52 10° N
Cosmos 1697 Rocket 2.7 20:16:09 10° NNW 20:21:50 77° NE 20:23:43 43° SE
SAR-Lupe-2 3.8 20:27:23 59° NNE 20:27:23 59° NNE 20:30:16 10° NNW
Cosmos 1603 3.9 20:26:12 23° SW 20:29:49 70° NW 20:35:32 10° NNE
Meteor 2-3 Rocket 4.3 20:24:32 10° NNW 20:29:53 46° W 20:31:47 34° SW
Cosmos 1892 Rocket 3.5 20:27:07 10° NNW 20:31:31 72° W 20:31:59 64° SW
Cosmos 1943 4.4 20:26:41 10° WSW 20:32:03 41° NW 20:37:25 10° NNE
Helios 1B rocket 3.4 20:35:11 30° W 20:35:11 30° W 20:38:10 10° NNW
Cosmos 1782 3.3 20:37:18 44° NE 20:37:18 44° NE 20:40:04 10° NNE
Cosmos 2151 3.8 20:36:13 10° N 20:40:09 38° ENE 20:40:35 37° E
Okean 1 Rocket 3.6 20:40:47 42° WSW 20:41:44 51° WNW 20:46:00 10° N
Cosmos 1980 Rocket 2.6 20:36:47 10° NNW 20:42:27 58° NE 20:44:56 32° ESE
Cosmos 1371 Rocket 3.9 20:43:06 55° S 20:44:15 79° ESE 20:49:35 10° NNE
Helios 1A 4.0 20:41:34 10° N 20:45:17 38° WNW 20:46:20 31° W
Tsikada Rocket 4.0 20:39:02 10° NNW 20:45:19 75° W 20:47:21 45° S
Cosmos 968 Rocket 3.5 20:41:13 10° NNW 20:46:26 72° WSW 20:47:23 57° S
ARGOS Delta rocket 4.1 20:44:07 10° NNE 20:48:31 47° E 20:48:48 46° ESE
Okean 2 Rocket 4.0 20:47:17 33° WSW 20:48:35 41° WNW 20:52:51 10° N
CZ-2C R/B 3.5 20:46:33 10° NNE 20:50:58 86° WNW 20:51:25 72° SSW
MetOp-A 4.0 20:50:07 54° SE 20:51:15 74° ENE 20:56:23 10° NNW
Cosmos 1455 Rocket 3.0 20:51:51 65° SW 20:52:21 74° WNW 20:56:49 10° N
Cosmos 2061 Rocket 3.9 20:50:51 47° S 20:52:46 81° E 20:59:00 10° NNE
Cosmos 1741 Rocket 3.9 20:49:26 10° NNW 20:54:47 88° ENE 20:55:57 56° SSE
Meteor 1-27 4.2 20:58:39 48° SSW 21:00:22 82° WNW 21:06:07 10° NNE
Cosmos 1544 Rocket 4.1 21:01:24 45° E 21:01:29 45° E 21:05:42 10° NNE
Cosmos 1452 Rocket 4.2 21:01:25 38° ESE 21:01:46 38° ESE 21:06:35 10° NE
ATLAS 3B R/B 2.9 20:56:47 10° NW 21:04:41 84° SW 21:08:29 33° SE
Cosmos 1758 Rocket 3.3 21:03:03 10° N 21:07:22 85° ENE 21:07:33 81° SE
Cosmos 2360 Rocket 4.4 21:04:02 10° NNW 21:08:31 23° NNE 21:13:00 10° E
ATLAS 5 CENTAUR R/B 3.8 21:09:49 10° W 21:11:03 14° W 21:11:03 14° W
Cosmos 2333 Rocket 3.9 21:08:20 10° NNW 21:13:20 31° NE 21:18:20 10° E
Cosmos 1867 4.0 21:13:28 43° SE 21:13:33 43° ESE 21:18:41 10° NE
Aureole 3 Rocket 3.6 21:12:40 55° SSW 21:13:56 89° W 21:20:51 10° NNE
BREEZE-M DEB (TANK) 3.9 21:05:38 10° WSW 21:14:40 48° S 21:19:26 10° ESE
Cosmos 1833 Rocket 2.6 21:19:39 53° SSW 21:21:01 84° ESE 21:26:40 10° NE
Cosmos 2082 Rocket 3.5 21:21:03 24° ESE 21:21:47 25° ESE 21:26:19 10° NE
Cosmos 2322 Rocket 4.1 21:20:00 10° NNW 21:24:46 27° NE 21:29:31 10° E
ALOS 2 3.5 21:26:08 35° W 21:26:14 35° W 21:30:17 10° NNW
Cosmos 1933 3.8 21:27:11 49° ENE 21:27:11 49° ENE 21:30:30 10° NNE
CZ-2C R/B 3.2 21:21:57 10° NNE 21:27:11 68° ESE 21:28:17 54° SSE
USA 229 DEB 4.1 21:23:19 10° NW 21:30:31 57° SW 21:33:11 40° S
USA 229 4.1 21:23:22 10° NW 21:30:35 57° SW 21:33:18 40° S
Cosmos 1825 Rocket 4.0 21:27:57 10° N 21:32:09 49° ENE 21:32:44 46° E
ARIANE 5 R/B 4.0 21:32:43 25° W 21:32:49 25° W 21:36:29 10° NW
PSLV R/B 3.8 21:32:46 10° N 21:36:51 56° WNW 21:37:12 54° W
Cosmos 1602 Rocket 3.3 21:32:39 10° NNW 21:36:58 84° W 21:37:06 82° SW
Cosmos 2219 Rocket 4.4 21:32:50 10° NNW 21:37:18 23° NNE 21:41:46 10° E
Cosmos 1850 Rocket 4.4 21:34:41 10° NW 21:39:34 43° WSW 21:39:54 42° WSW
SL-16 R/B 3.2 21:35:30 10° NNW 21:40:56 43° NE 21:46:04 11° ESE
ATLAS 2AS CENTAUR R/B 2.6 21:38:07 38° SW 21:41:05 83° SE 21:47:55 10° NE
Cosmos 1437 Rocket 3.4 21:42:18 41° ENE 21:42:18 41° ENE 21:45:01 10° NNE
Cosmos 2228 3.8 21:42:18 37° W 21:42:47 38° WNW 21:46:42 10° N
Cosmos 1302 Rocket 4.3 21:42:24 46° SE 21:43:03 49° ESE 21:48:03 10° NE
Cosmos 2056 Rocket 4.5 21:40:33 26° WSW 21:43:11 43° NW 21:48:22 10° NNE
Cosmos 1900 4.2 21:43:40 66° SSW 21:44:19 79° SE 21:49:17 10° NE
Cosmos 1331 Rocket 4.0 21:47:26 52° SW 21:48:42 78° WNW 21:53:59 10° NNE
CZ-2C R/B 2.7 21:47:40 52° SSW 21:48:48 66° WSW 21:54:13 10° NNW
Landsat 5 3.5 21:44:42 10° NNE 21:48:57 68° ESE 21:49:08 67° ESE
SeaSat 1 4.4 21:56:42 15° W 21:56:42 15° W 21:59:09 10° WNW
USA 234 3.4 21:49:53 10° E 21:56:25 73° N 22:02:57 10° WNW
Nadezhda 4 Rocket 3.9 21:50:31 10° NNW 21:56:41 75° W 21:58:32 47° S
ACS3 Solar Sail 2.6 21:53:06 10° NNE 21:58:46 40° E 22:01:09 29° SE
Okean 1 4.1 21:59:16 36° E 21:59:16 36° E 22:02:16 10° NNE
Cosmos 2237 4.2 21:53:41 10° NNW 21:59:27 87° ENE 22:01:43 39° SE
Meteor 1-25 Rocket 4.4 21:55:30 10° NNW 22:01:15 61° W 22:02:36 48° SSW
Timation 1 Rocket 4.3 21:59:51 48° SSW 22:01:39 82° ESE 22:07:43 10° NE
Cosmos 2098 Rocket 3.6 22:00:15 52° S 22:01:44 86° E 22:07:19 10° NNE
Cosmos 1766 4.4 22:00:20 10° N 22:03:10 28° ENE 22:03:17 28° ENE
IDEFIX/ARIANE 42P 4.4 21:59:30 10° NE 22:03:26 21° E 22:05:39 17° ESE
Cosmos 1697 Rocket 3.9 22:00:47 10° NW 22:05:14 25° WSW 22:05:24 25° WSW
Cosmos 1110 Rocket 4.4 22:04:28 39° WSW 22:06:11 58° WNW 22:11:27 10° NNE
Cosmos 1464 Rocket 3.9 22:09:27 45° SSW 22:11:29 79° WNW 22:17:39 10° N
DELTA 2 DEB (DPAF) 3.6 22:10:01 10° NNE 22:13:23 76° NE 22:13:23 76° NE
Cosmos 2195 Rocket 4.4 22:08:05 10° NNW 22:14:26 80° W 22:16:42 43° S
Cosmos 1536 3.7 22:11:27 10° N 22:14:52 36° ENE 22:15:33 33° E
Cosmos 2151 4.2 22:13:14 10° NNW 22:16:37 27° W 22:16:37 27° W
Cosmos 1606 Rocket 3.4 22:18:28 68° S 22:19:00 88° ESE 22:23:27 10° NNE
USA 281 3.6 22:13:29 11° SE 22:19:43 64° NE 22:26:13 10° NNW
CZ-4C R/B 2.1 22:20:44 45° SE 22:21:10 46° SE 22:26:25 10° NE
PSLV R/B 4.2 22:18:38 10° NNE 22:22:22 49° E 22:22:35 48° ESE
GP-B 3.3 22:21:10 10° N 22:25:32 63° E 22:26:26 50° SE
Meteor 1-5 Rocket 4.4 22:20:29 10° NNW 22:25:44 54° W 22:26:56 45° SW
Okean 1-7 Rocket 3.9 22:21:43 10° NNW 22:25:55 46° W 22:26:05 46° WSW
Cosmos 1980 Rocket 2.9 22:21:07 10° NW 22:26:13 35° WSW 22:26:39 34° WSW
Cosmos 2026 Rocket 4.0 22:20:27 10° NNW 22:26:43 77° W 22:29:09 40° S
Meteor 2-10 4.3 22:21:36 10° NNW 22:27:00 60° W 22:28:25 46° SSW
Cosmos 1076 Rocket 3.4 22:23:45 10° NNW 22:28:04 70° W 22:28:27 65° SW
CZ-4C R/B 3.5 22:30:32 10° N 22:33:13 45° NW 22:33:13 45° NW
Cosmos 2034 Rocket 4.0 22:31:16 41° SSW 22:33:43 80° W 22:40:09 10° N
Cosmos 2058 Rocket 3.6 22:34:42 40° SE 22:35:46 51° E 22:40:03 10° NNE
Cosmos 2369 4.0 22:34:22 10° NW 22:39:50 48° WSW 22:40:56 42° SW
COSMOS 2406 3.9 22:38:43 32° SSE 22:40:44 44° ESE 22:46:10 10° NE
Cosmos 1092 Rocket 3.9 22:35:35 10° NNW 22:41:42 71° W 22:44:06 39° SSW
Cosmos 1452 Rocket 4.2 22:41:37 30° WSW 22:43:45 45° NW 22:48:48 10° NNE
Cosmos 1726 Rocket 3.4 22:43:54 59° SW 22:44:33 72° WNW 22:48:46 10° N
Cosmos 2084 Rocket 3.7 22:41:01 10° NW 22:45:12 66° NE 22:49:25 10° ESE
Cosmos 1486 Rocket 3.9 22:43:59 10° NNW 22:49:14 89° ENE 22:52:00 29° SSE
MSX 4.4 22:47:41 10° NNE 22:53:18 50° E 22:56:16 27° SSE
Cosmos 2360 Rocket 2.5 22:47:54 10° NNW 22:53:35 66° NE 22:59:14 10° SE
ATLAS 3B R/B 3.7 22:48:14 10° WNW 22:54:35 29° WSW 22:55:41 28° SW
Cosmos 1867 4.1 22:54:04 26° WSW 22:57:04 56° NW 23:02:28 10° NE
Cosmos 2333 Rocket 2.1 22:52:32 10° NW 22:58:14 80° WSW 23:02:07 21° SSE
Cosmos 1777 Rocket 3.9 22:53:23 10° NNW 22:58:41 88° WSW 23:01:48 25° SSE
Cosmos 1953 Rocket 4.0 22:55:32 10° NNW 22:59:46 44° W 23:00:19 42° WSW
Resurs 1-4 Rocket 4.2 22:57:09 10° NE 23:01:00 20° E 23:04:49 10° SE
SL-08 ROCKET BODY 4.3 22:58:13 10° NNW 23:04:13 79° W 23:07:23 30° S
Cosmos 2082 Rocket 2.2 23:02:51 36° SW 23:05:19 78° NW 23:11:05 10° NNE
Cosmos 1833 Rocket 4.2 23:01:16 12° W 23:05:34 29° NW 23:10:29 10° NNE
Cosmos 724 4.3 23:03:06 36° SSW 23:05:41 76° SE 23:11:37 10° NE
NPP 4.3 23:01:19 10° NNE 23:06:34 49° E 23:09:33 24° SSE
Cosmos 2084 3.6 23:05:15 39° W 23:06:37 64° NW 23:10:45 10° NE
Cosmos 909 Rocket 4.0 23:03:37 33° SW 23:06:37 86° SE 23:13:09 10° NE
H-2A R/B 4.5 23:05:21 10° NE 23:08:34 16° E 23:11:48 10° SE
BREEZE-M R/B 4.2 23:03:23 10° W 23:09:17 50° SSW 23:15:46 10° SE
Cosmos 2322 Rocket 2.2 23:03:54 10° NNW 23:09:35 86° ENE 23:15:15 10° SSE
Meteor 2-9 Rocket 4.2 23:04:25 10° NNW 23:09:48 73° ENE 23:13:35 19° SSE
Cosmos 2278 3.6 23:04:24 10° NW 23:10:08 74° WSW 23:14:17 19° SSE
BREEZE-M DEB (TANK) 3.5 23:12:58 26° SE 23:12:58 26° SE 23:16:03 10° ESE
Cosmos 1271 Rocket 3.8 23:15:08 26° SE 23:16:19 33° E 23:19:30 10° NNE
Cosmos 1437 Rocket 4.4 23:16:08 17° WNW 23:16:38 18° WNW 23:19:04 10° NNW
Cosmos 220 Rocket 4.3 23:17:56 37° SSE 23:19:10 52° ESE 23:23:07 10° NE
Cosmos 1634 Rocket 4.0 23:16:23 32° SSW 23:19:21 67° WNW 23:25:31 10° N
NOSS 3-4 (A) 3.8 23:13:18 10° NW 23:19:45 83° NE 23:27:24 10° SE
NOSS 3-4 (C) 3.8 23:13:51 10° NW 23:20:18 82° NE 23:27:58 10° SE
Cosmos 1470 2.2 23:17:21 10° N 23:20:43 88° ENE 23:21:21 56° SSE
Cosmos-2242 3.2 23:20:02 42° SW 23:21:08 56° WNW 23:25:16 10° N
Meteor 2-2 Rocket 4.2 23:19:35 33° SSW 23:22:12 76° WNW 23:27:53 10° NNE
Cosmos 2219 Rocket 2.5 23:16:37 10° NNW 23:22:16 68° NE 23:27:53 10° SE
Cosmos 1607 3.9 23:20:33 31° SSW 23:23:40 79° SE 23:29:58 10° NE
SL-16 R/B 2.4 23:19:40 10° NW 23:25:08 49° WSW 23:27:50 28° S
KORONAS-FOTON 3.3 23:24:41 61° SSW 23:25:11 80° WNW 23:28:33 10° N
Cosmos 1707 2.5 23:26:32 46° WNW 23:26:32 46° WNW 23:29:13 10° N
Cosmos 1992 Rocket 4.4 23:25:21 29° WSW 23:27:48 51° NW 23:32:54 10° NNE
MOZ.5/SAFIR/RUBIN 5/SL-8 3.9 23:24:33 16° SSE 23:28:14 76° ENE 23:32:53 10° NNW
ALOS 4.1 23:25:57 10° NE 23:29:41 24° E 23:33:23 10° SSE
Cosmos 44 Rocket 3.4 23:29:36 32° SW 23:32:02 84° NW 23:37:17 10° NE
ATLAS 2AS CENTAUR R/B 3.5 23:25:56 10° W 23:32:33 47° NNW 23:39:05 10° NE
Meteor 1-11 Rocket 3.9 23:28:39 10° NNW 23:34:36 78° ENE 23:40:24 10° SSE
Cosmos 1766 4.3 23:33:57 10° NW 23:36:04 22° WNW 23:36:04 22° WNW
Cosmos 2221 2.5 23:35:54 30° S 23:37:50 74° E 23:41:59 10° NNE
Envisat 4.1 23:33:59 10° NNE 23:38:45 39° E 23:43:05 12° SSE
USA 234 3.2 23:32:53 10° ESE 23:39:26 82° SSW 23:46:02 10° WNW
Aureole 1 Rocket 3.3 23:35:57 10° NNW 23:39:55 69° ENE 23:44:54 10° SE
Iridium 4 Rocket 4.0 23:36:50 15° SSE 23:40:38 56° E 23:45:44 10° N
DMSP B5D2-2 4.2 23:35:41 10° SSE 23:40:51 76° ENE 23:46:04 10° NNW
ACS3 Solar Sail 2.2 23:35:32 10° N 23:41:18 49° WNW 23:44:43 24° SW
Meteor 1-14 Rocket 4.2 23:35:37 10° NNW 23:41:19 65° W 23:45:03 21° S
DNEPR-1 R/B 4.1 23:37:05 10° NW 23:42:13 82° SW 23:48:29 10° SE
Gbstr 26 Del rocket 4.1 23:44:13 21° SSE 23:44:13 21° SSE 23:45:48 10° SE
IDEFIX/ARIANE 42P 2.5 23:38:15 10° NNE 23:43:27 75° WNW 23:46:20 27° SSW
ADEOS Rocket 3.7 23:38:05 10° NNE 23:45:40 79° ESE 23:52:01 17° S
Cosmos 2279 Rocket 4.1 23:43:05 26° SSW 23:46:42 61° WNW 23:52:55 10° N
Cosmos 990 Rocket 3.9 23:43:35 10° NNW 23:48:41 66° WSW 23:53:43 10° SSE
Cosmos 1536 4.0 23:47:01 10° NW 23:49:56 23° W 23:50:04 23° W
Cosmos 2333 4.2 23:46:02 10° NW 23:51:40 66° WSW 23:57:18 10° SSE
BREEZE-M DEB (TANK) 4.1 23:36:17 10° W 23:53:55 59° SSW 23:58:25 10° ESE
